Temperature
18 18 18 18 18 18 18 18 19 19 18 18 18 18 18 18 18 18 18 18 18 18 18 18 18 18 18 18 18 18 18 18 18 18 18 18 18 18 18 18 18 18 18
18 18 18 18 18 18 18 18 18 18 18 18 18 18 18 18 18 18 18 18 18 18 18 18 18 18 18 18 18 18 18 18 18 18 18 18 18 18 18 18 18 18 18
18 18 18 18 18 18 18 18 18 18 18 18 18 18 18 18 18 18 18 18 18 18 18 18 18 18 18 18 18 17 17 17 17 17 17 17 17 17 17 17 17 17 18
18 18 18 18 18 18 18 18 18 18 18 18 18 18 18 18 18 18 18 18 18 18 18 18 18 18 18 18 17 17 17 17 17 17 17 17 17 17 17 17 17 17 17
18 18 18 18 18 18 18 18 18 18 18 18 18 18 18 18 18 18 18 18 17 17 17 17 17 17 17 17 17 17 17 17 17 17 17 17 17 17 17 17 17 17 17
18 18 18 18 18 18 18 18 18 18 18 18 18 17 17 17 17 17 18 17 17 17 17 17 17 17 17 17 17 17 17 17 17 17 17 17 17 17 17 17 17 17 17
18 18 18 18 18 18 18 18 18 18 17 17 17 17 17 17 17 17 17 17 17 17 17 17 17 17 17 17 17 17 17 17 17 17 17 17 17 17 17 17 17 17 17
18 18 18 18 18 18 18 18 18 17 17 17 17 17 17 17 17 17 17 17 17 17 17 17 17 17 17 17 17 16 16 17 17 17 17 17 16 16 16 17 17 17 17
18 18 18 18 18 18 18 17 17 17 17 17 17 17 17 17 17 17 17 17 17 17 17 17 17 16 16 16 16 16 16 16 16 16 16 16 16 16 16 16 16 16 16
18 18 18 18 17 17 17 17 17 17 17 17 17 17 17 17 17 17 17 17 17 17 16 16 16 16 16 16 16 16 16 16 16 16 16 16 16 16 16 16 16 16 16
18 18 18 18 18 17 17 17 17 17 17 17 17 17 17 17 17 17 17 17 16 16 16 16 16 16 16 16 16 16 16 16 16 16 16 16 16 16 16 16 16 16 16
18 18 18 18 18 17 17 17 17 17 17 17 17 17 17 17 17 17 16 16 16 16 16 16 16 16 16 16 16 16 16 16 16 16 16 16 16 16 16 16 16 15 15
18 18 18 18 18 17 17 17 17 17 17 17 17 17 17 17 17 16 16 16 16 16 16 16 16 16 16 16 16 16 16 16 16 16 16 16 16 16 16 15 15 15 15
18 18 18 18 18 17 17 17 17 17 17 17 17 17 17 17 17 16 16 16 16 16 16 16 16 16 16 16 16 16 16 15 15 15 15 16 16 15 15 15 15 15 15
18 18 18 18 18 17 17 17 17 17 17 17 17 17 17 17 17 16 16 16 16 16 16 16 16 16 16 16 15 15 15 15 15 15 15 15 15 15 15 15 15 15 15
18 18 18 18 18 18 17 17 17 17 17 17 17 17 17 17 17 16 16 16 16 16 16 16 16 16 16 16 15 15 15 15 15 15 15 15 15 15 15 15 15 14 14
18 18 18 18 18 17 17 17 17 17 17 17 17 17 17 17 17 16 16 16 16 16 16 16 16 16 15 15 15 15 15 15 15 15 15 15 15 15 15 15 14 14 14
18 18 18 18 18 17 17 17 17 17 17 17 17 17 17 17 16 16 16 16 16 16 16 16 16 15 15 15 15 15 15 15 15 15 15 15 15 15 14 14 14 14 14
18 18 18 18 18 17 17 17 17 17 17 17 17 17 17 16 16 16 16 16 16 16 16 16 15 15 15 15 15 15 14 14 14 14 14 14 14 14 14 14 14 14 14
18 18 18 18 17 17 17 17 17 17 17 17 17 17 16 16 16 16 16 16 16 16 16 15 15 15 15 15 15 14 14 14 14 14 14 14 14 14 14 14 14 14 14
18 18 18 17 17 17 17 17 17 17 17 17 16 16 16 16 16 16 16 16 16 16 15 15 15 15 15 15 15 14 14 14 14 14 14 14 14 14 14 14 14 14 14
18 18 18 18 17 17 17 17 17 17 17 16 16 16 16 16 16 16 16 16 15 15 15 15 15 15 15 15 15 14 14 14 14 14 14 14 14 14 14 14 14 14 14
18 18 18 17 17 17 17 17 17 17 16 16 16 16 16 16 16 16 16 16 15 15 15 15 15 15 15 14 14 14 14 14 13 13 13 13 13 13 13 13 13 13 13
18 18 18 17 17 17 17 17 17 17 16 16 16 16 16 16 16 16 16 15 15 15 15 15 15 15 15 15 14 14 14 14 14 13 13 13 13 13 13 13 13 13 13
18 18 18 17 17 17 17 17 17 16 16 16 16 16 16 16 16 16 16 15 15 15 15 15 15 15 15 15 15 14 14 14 14 13 13 13 13 13 13 13 13 13 13
18 18 18 17 17 17 17 17 17 16 16 16 16 16 16 16 16 15 15 15 15 15 15 15 15 15 15 15 15 14 14 14 14 14 13 13 12 12 12 12 12 12 12
Wind_Speed
2 3 9 9 10 11 11 12 12 12 13 13 12 12 13 13 13 13 13 13 12 12 11 12 12 11 11 11 11 10 10 10 10 10 11 11 11 11 10 10 9 8 10
5 6 10 10 10 11 11 12 12 12 12 12 12 12 13 13 13 12 12 12 12 11 11 11 11 11 11 10 10 9 9 9 10 10 10 10 10 10 10 10 10 8 9
6 8 9 10 10 10 11 11 12 12 12 12 12 12 13 12 13 12 12 12 12 11 11 10 10 10 10 10 9 9 9 9 10 10 10 8 9 10 10 10 10 10 9
8 8 9 11 11 11 11 11 12 12 12 12 12 12 12 12 12 12 12 12 11 11 11 10 10 9 9 9 9 9 9 10 11 10 9 7 7 9 10 10 10 10 10
8 9 10 11 11 11 11 11 11 11 11 11 12 12 12 11 11 11 11 11 10 10 10 9 9 8 8 9 9 10 11 12 11 10 9 8 7 9 10 10 10 9 10
7 9 11 12 11 11 11 11 11 11 11 11 11 11 11 10 10 10 10 10 9 9 9 9 8 8 8 9 10 11 12 11 11 10 9 8 8 9 10 10 10 9 9
7 8 10 12 11 11 11 11 11 11 10 10 10 10 10 10 10 10 9 9 9 9 8 8 8 8 9 9 10 11 11 11 10 9 8 7 7 9 9 9 10 9 9
8 7 9 11 11 11 11 11 10 10 10 10 10 10 10 10 10 9 9 8 8 8 8 8 8 8 9 10 11 11 11 10 10 9 8 7 8 9 9 10 10 9 9
7 6 7 8 10 10 10 10 10 10 9 9 10 10 9 9 9 8 8 7 7 7 7 8 9 9 9 11 12 12 12 12 9 7 7 6 8 9 10 9 9 9 9
5 5 5 7 8 8 8 9 9 8 8 8 9 9 8 8 8 7 6 6 6 6 6 7 8 8 9 10 11 12 11 10 9 7 6 7 9 9 10 10 9 9 9
5 4 4 5 6 7 7 7 7 7 7 7 7 7 7 5 5 5 5 5 5 5 5 5 6 7 8 9 10 11 9 8 8 7 6 8 9 10 10 10 10 10 9
6 5 5 5 5 5 5 5 5 4 5 5 5 5 5 4 4 4 4 4 3 3 4 4 5 5 6 6 8 9 8 8 7 6 7 8 9 9 10 10 10 10 10
5 6 6 6 6 5 3 4 3 3 3 4 4 5 5 4 3 3 2 2 2 4 4 4 5 5 5 6 7 7 8 7 6 6 7 9 8 9 9 9 10 10 10
5 6 6 6 5 5 5 4 4 3 3 3 4 6 5 3 3 3 2 1 2 3 4 4 5 6 7 7 8 8 8 7 6 6 7 8 8 9 9 10 9 9 9
4 4 5 6 6 5 4 3 3 3 3 3 4 5 6 4 3 3 2 2 3 4 4 4 5 5 5 7 8 8 7 6 6 7 7 9 9 9 9 9 9 9 9
4 4 5 6 6 5 4 3 3 4 4 4 4 5 5 5 4 4 3 2 3 5 6 5 5 5 5 6 6 7 6 6 6 7 7 8 9 9 9 9 9 10 9
4 4 5 5 5 5 5 4 3 4 4 4 4 5 6 6 6 5 3 3 4 6 7 6 6 6 5 5 5 5 5 5 6 6 6 7 8 9 9 9 9 9 9
4 3 4 4 5 5 5 4 3 4 4 3 4 5 5 7 7 6 4 3 5 6 6 4 4 4 4 4 3 3 4 4 5 5 6 6 7 7 8 9 9 9 9
4 4 3 3 4 5 5 4 4 4 3 4 4 4 5 6 8 7 4 4 6 5 4 4 3 4 4 3 3 3 3 3 3 5 5 6 6 7 7 8 8 8 8
5 4 4 3 4 4 4 3 3 3 2 3 3 4 5 6 7 7 5 5 6 4 4 4 4 4 3 3 4 4 3 3 4 4 4 5 5 6 7 7 7 7 8
5 5 4 4 3 4 3 3 3 2 2 2 2 4 5 6 6 6 4 4 4 4 4 4 4 4 3 3 4 3 4 4 4 3 4 4 5 6 7 7 7 7 7
5 4 4 4 4 5 4 3 3 3 2 2 1 3 4 6 6 6 5 4 4 4 4 4 4 3 2 2 3 3 2 4 4 4 3 3 3 5 5 6 6 7 6
5 5 5 4 4 5 5 3 3 3 3 2 1 1 2 4 5 5 6 4 4 4 4 3 4 4 3 1 1 3 3 2 1 3 3 3 3 3 3 5 5 6 6
5 5 5 5 5 4 6 6 6 4 3 3 2 2 2 3 4 6 6 5 4 3 4 4 3 3 4 2 1 1 2 4 3 0 3 3 2 2 2 3 4 4 5
5 5 5 5 5 5 6 7 6 4 3 2 2 2 2 2 3 5 5 5 4 3 3 3 3 3 3 3 2 2 2 1 2 3 1 1 2 2 1 2 3 3 4
3 4 5 6 5 5 5 5 6 6 5 5 4 3 2 1 1 3 4 4 4 3 4 3 3 3 2 2 2 2 3 3 3 3 2 1 0 1 2 1 2 2 3
Wind_Direction
166 148 121 115 112 110 108 109 108 106 103 100 97 95 94 93 93 93 91 90 87 84 83 81 79 77 78 81 81 80 81 83 83 87 87 83 84 86 85 82 84 86 90
156 141 125 116 112 110 109 109 109 107 105 102 100 98 97 94 94 94 93 90 89 89 88 84 81 79 77 77 75 73 75 80 82 85 85 83 84 84 84 82 86 89 89
130 127 123 120 116 114 110 109 109 110 107 105 103 101 100 97 94 94 92 90 89 89 89 86 82 79 76 73 70 70 73 81 85 84 80 78 84 84 82 82 83 87 89
128 127 125 124 121 117 112 110 110 111 109 107 105 104 102 100 99 98 94 92 90 89 87 84 83 81 76 70 67 70 75 82 84 80 68 68 80 86 84 83 82 84 86
121 125 128 126 124 119 115 113 114 114 112 111 109 108 106 104 103 102 98 95 92 90 88 83 80 80 75 70 71 74 79 82 80 74 67 68 74 85 87 84 82 82 83
120 125 131 128 125 122 119 116 116 117 114 115 113 110 108 107 105 102 100 97 93 90 87 85 79 75 76 75 74 79 84 82 78 71 66 69 73 83 85 83 80 81 80
127 129 131 129 127 126 124 123 123 122 120 120 118 114 111 107 106 105 102 97 95 93 89 86 80 78 79 77 76 85 86 84 78 71 63 68 77 83 84 81 80 78 79
137 136 134 133 130 129 128 129 128 126 124 124 122 119 115 113 111 108 104 99 97 96 91 84 83 83 79 77 79 84 83 82 81 72 60 64 80 83 83 80 79 78 76
139 136 135 135 134 134 133 134 133 130 130 129 127 125 122 121 118 115 112 107 104 100 91 83 82 81 77 78 81 84 84 78 74 66 65 67 82 85 83 81 79 76 75
137 140 143 142 140 138 142 144 142 140 137 137 136 131 127 124 124 126 126 122 115 105 96 86 81 78 75 75 78 84 82 74 72 63 61 73 80 85 85 83 80 77 75
152 160 158 155 155 153 154 154 151 151 150 151 149 144 133 127 133 140 146 141 127 111 101 93 81 73 68 70 76 81 76 74 75 67 67 77 80 85 85 83 80 78 78
168 178 177 174 175 173 165 155 159 162 164 163 163 157 146 143 149 154 159 154 133 104 96 93 77 67 61 63 70 76 75 74 70 70 73 75 77 86 87 83 78 77 78
177 172 178 178 179 176 164 160 166 165 170 175 178 168 160 152 147 146 130 121 90 86 78 64 59 67 70 74 79 81 81 74 67 65 73 75 79 90 90 86 81 80 79
163 179 175 170 174 176 164 161 162 156 162 176 173 163 162 152 144 143 137 133 102 93 85 75 75 73 77 84 88 88 85 81 73 67 71 78 82 89 89 87 84 82 81
162 168 170 169 173 171 161 167 158 165 173 174 163 166 161 150 147 146 134 116 107 103 103 98 91 84 78 84 92 92 91 86 77 67 64 70 79 86 87 86 84 82 82
173 173 170 167 175 165 161 166 165 170 166 153 145 148 146 144 140 128 117 105 106 114 116 107 102 92 85 84 81 86 91 91 83 73 65 64 71 76 83 83 82 84 84
177 175 175 171 167 166 164 168 160 155 144 132 135 129 126 125 130 126 119 113 116 117 109 98 91 88 87 81 74 78 86 86 87 82 73 68 67 68 75 78 79 79 80
169 177 184 167 156 160 157 153 147 140 133 130 128 122 123 129 128 121 119 120 123 117 109 100 95 87 80 79 72 62 68 77 84 82 80 78 72 63 63 70 73 74 74
166 165 160 138 146 154 151 142 138 129 129 133 126 121 118 122 126 123 122 124 122 113 107 112 100 105 99 86 78 63 52 59 71 83 80 81 80 69 64 62 64 68 69
157 151 140 129 134 135 127 114 106 102 113 120 119 123 131 127 126 125 125 123 122 111 97 100 102 93 102 102 92 68 42 42 60 66 72 79 79 73 68 62 58 55 58
151 147 146 139 142 136 134 141 137 140 138 124 140 143 148 137 132 128 126 120 119 120 125 123 115 99 92 102 87 54 31 38 49 45 57 68 69 71 70 66 62 58 49
167 165 158 154 155 157 159 164 161 151 146 144 132 120 141 142 143 138 131 135 129 118 114 121 122 114 121 122 120 103 40 15 16 27 38 67 64 72 72 71 69 64 54
178 179 173 169 164 166 156 131 110 86 73 70 77 104 129 145 142 138 136 134 136 137 144 148 145 143 155 184 153 138 137 186 340 1 21 41 47 54 67 74 73 69 62
192 187 177 171 168 166 154 145 147 152 164 190 179 167 140 134 137 146 146 145 143 144 150 164 159 155 148 173 227 161 162 156 151 70 358 9 32 47 53 79 73 73 70
185 183 181 166 164 166 165 164 160 162 177 164 144 143 141 133 143 150 150 148 151 163 170 167 152 151 155 168 175 158 117 110 133 149 176 346 16 14 34 76 84 80 82
171 164 159 157 171 177 171 166 169 174 173 158 157 165 172 163 161 162 157 153 161 168 177 175 163 159 156 153 158 154 155 162 170 158 168 176 134 346 19 43 78 89 94
Height
1537 1537 1537 1537 1536 1536 1536 1536 1536 1536 1536 1536 1536 1536 1536 1536 1536 1536 1536 1535 1535 1535 1535 1535 1535 1535 1535 1534 1534 1534 1534 1534 1534 1533 1533 1533 1533 1533 1533 1532 1532 1532 1532
1537 1537 1537 1537 1537 1537 1537 1537 1536 1536 1536 1536 1537 1537 1537 1537 1537 1537 1537 1537 1537 1536 1536 1536 1536 1536 1536 1535 1535 1535 1535 1535 1535 1534 1534 1534 1534 1534 1533 1533 1533 1533 1533
1537 1537 1537 1537 1537 1537 1537 1537 1537 1537 1537 1537 1538 1538 1538 1538 1538 1538 1538 1538 1538 1538 1537 1537 1537 1537 1537 1537 1536 1536 1536 1536 1535 1535 1535 1535 1535 1534 1534 1534 1534 1534 1533
1537 1537 1538 1538 1538 1538 1538 1538 1537 1538 1538 1538 1538 1538 1539 1539 1539 1539 1539 1539 1539 1539 1539 1538 1538 1538 1538 1537 1537 1537 1537 1537 1536 1536 1536 1536 1535 1535 1535 1535 1535 1535 1534
1538 1538 1538 1538 1538 1538 1538 1538 1538 1538 1538 1539 1539 1539 1540 1540 1540 1540 1540 1540 1540 1540 1540 1539 1539 1539 1539 1539 1538 1538 1538 1538 1537 1537 1537 1537 1537 1536 1536 1536 1536 1535 1535
1538 1538 1538 1538 1538 1539 1539 1539 1539 1539 1539 1540 1540 1540 1541 1541 1541 1541 1541 1541 1541 1541 1541 1541 1540 1540 1540 1540 1540 1539 1539 1539 1539 1539 1538 1538 1537 1537 1537 1536 1536 1536 1536
1539 1539 1539 1539 1539 1539 1540 1540 1540 1540 1540 1541 1541 1541 1541 1542 1542 1542 1542 1542 1542 1542 1542 1542 1542 1541 1541 1541 1541 1541 1541 1540 1540 1540 1539 1539 1538 1538 1537 1537 1537 1537 1536
1540 1540 1540 1540 1540 1540 1540 1541 1541 1541 1541 1542 1542 1542 1543 1543 1543 1543 1543 1543 1543 1543 1543 1543 1543 1543 1543 1543 1542 1542 1542 1542 1541 1541 1540 1540 1539 1539 1538 1538 1537 1537 1537
1541 1541 1541 1541 1541 1541 1541 1542 1542 1542 1542 1543 1543 1543 1544 1544 1544 1544 1545 1545 1545 1545 1545 1545 1545 1544 1544 1544 1544 1543 1543 1543 1542 1542 1541 1541 1540 1539 1539 1538 1538 1538 1537
1542 1542 1542 1542 1542 1542 1542 1543 1543 1543 1544 1544 1544 1545 1545 1545 1545 1546 1546 1546 1546 1546 1546 1546 1546 1546 1546 1545 1545 1545 1545 1544 1544 1543 1542 1542 1541 1540 1540 1539 1539 1538 1538
1542 1542 1542 1543 1543 1543 1543 1543 1544 1544 1545 1545 1546 1546 1546 1546 1546 1546 1547 1547 1547 1547 1547 1547 1547 1547 1547 1547 1547 1546 1546 1546 1545 1544 1544 1543 1542 1541 1541 1540 1540 1539 1539
1542 1542 1543 1543 1543 1543 1544 1544 1544 1545 1545 1546 1546 1547 1547 1547 1548 1547 1547 1548 1548 1548 1548 1548 1548 1548 1548 1548 1548 1548 1547 1547 1546 1546 1545 1544 1543 1542 1542 1541 1541 1540 1540
1542 1542 1542 1543 1543 1544 1544 1544 1545 1545 1546 1546 1547 1547 1548 1548 1548 1548 1549 1549 1549 1549 1550 1550 1549 1550 1549 1549 1549 1549 1549 1548 1547 1547 1546 1545 1544 1543 1543 1542 1542 1541 1541
1541 1542 1542 1543 1543 1543 1544 1544 1545 1545 1546 1546 1547 1547 1548 1548 1549 1549 1550 1550 1550 1550 1550 1551 1550 1550 1550 1550 1550 1550 1550 1549 1549 1548 1547 1546 1545 1545 1544 1543 1543 1542 1542
1541 1542 1542 1542 1543 1543 1543 1544 1545 1545 1546 1547 1547 1548 1548 1548 1549 1549 1550 1550 1551 1551 1551 1551 1552 1551 1551 1551 1551 1551 1551 1550 1550 1549 1548 1548 1547 1546 1545 1544 1544 1543 1543
1540 1541 1541 1541 1542 1542 1543 1544 1544 1545 1546 1546 1547 1548 1548 1549 1549 1550 1550 1551 1552 1552 1552 1552 1553 1553 1552 1552 1552 1552 1552 1551 1551 1550 1550 1549 1548 1547 1546 1546 1545 1545 1544
1539 1540 1540 1541 1541 1542 1543 1543 1544 1545 1546 1546 1547 1548 1548 1549 1549 1550 1551 1551 1552 1552 1553 1553 1553 1553 1553 1553 1553 1553 1553 1552 1552 1552 1551 1550 1549 1549 1548 1547 1547 1546 1545
1538 1539 1540 1540 1540 1541 1542 1543 1544 1545 1545 1546 1547 1548 1548 1549 1550 1550 1551 1551 1552 1553 1553 1553 1553 1554 1554 1554 1554 1554 1554 1553 1553 1553 1552 1552 1551 1550 1549 1549 1548 1547 1546
1537 1538 1538 1539 1539 1540 1541 1542 1543 1544 1545 1546 1547 1547 1548 1549 1550 1550 1551 1551 1552 1553 1553 1554 1554 1554 1554 1554 1555 1555 1555 1555 1554 1554 1553 1553 1552 1552 1551 1550 1549 1549 1548
1536 1537 1537 1538 1539 1540 1541 1542 1543 1544 1545 1546 1546 1547 1548 1548 1549 1550 1551 1551 1552 1553 1553 1554 1554 1554 1555 1555 1555 1555 1556 1556 1555 1555 1555 1554 1554 1553 1552 1551 1551 1550 1549
1535 1536 1536 1537 1538 1539 1540 1541 1542 1543 1544 1545 1546 1547 1547 1548 1549 1550 1550 1551 1552 1552 1553 1554 1554 1554 1555 1555 1555 1556 1556 1556 1556 1556 1556 1555 1554 1554 1553 1552 1552 1551 1550
1534 1534 1535 1536 1537 1538 1539 1540 1541 1542 1544 1545 1546 1546 1547 1548 1548 1549 1550 1550 1551 1552 1553 1553 1554 1554 1555 1555 1555 1555 1556 1558 1557 1557 1557 1556 1555 1555 1554 1553 1553 1552 1551
1532 1533 1534 1535 1536 1537 1538 1539 1541 1542 1543 1544 1545 1546 1546 1547 1548 1549 1549 1550 1551 1552 1552 1553 1554 1554 1554 1555 1555 1556 1556 1556 1557 1557 1557 1556 1556 1555 1555 1554 1553 1552 1551
1531 1532 1533 1534 1535 1536 1537 1538 1539 1540 1541 1543 1544 1545 1546 1547 1548 1548 1549 1550 1550 1551 1552 1552 1553 1554 1554 1554 1555 1555 1556 1556 1556 1556 1557 1557 1556 1556 1555 1554 1554 1553 1552
1530 1531 1532 1533 1534 1535 1537 1538 1538 1539 1541 1542 1544 1544 1545 1546 1547 1548 1548 1549 1550 1550 1551 1552 1552 1553 1553 1553 1554 1554 1554 1555 1555 1555 1555 1556 1556 1555 1555 1554 1554 1553 1552
1528 1529 1531 1532 1533 1535 1536 1537 1537 1539 1540 1541 1542 1543 1544 1545 1546 1547 1547 1548 1549 1549 1550 1551 1552 1552 1552 1552 1553 1553 1553 1553 1553 1553 1553 1554 1554 1555 1554 1554 1553 1553 1552